Time,TemperatureF,DewpointF,PressureIn,WindDirection,WindDirectionDegrees,WindSpeedMPH,WindSpeedGustMPH,Humidity,HourlyPrecipIn,Conditions,Clouds,dailyrainin,SolarRadiationWatts/m^2,SoftwareType,DateUTC
2013-01-26 00:02:00,60.7,58.1,29.95,NNE,20,2.3,2.3,91,0.00,RA,,0.00,0.0,WeatherDisplay:10.37,2013-01-26 08:02:00,
2013-01-26 00:07:00,60.7,58.1,29.94,NNE,20,0.0,0.0,91,0.00,RA,,0.00,0.0,WeatherDisplay:10.37,2013-01-26 08:07:00,
2013-01-26 00:12:00,60.7,57.7,29.94,NNE,20,0.0,0.0,90,0.00,RA,,0.00,0.0,WeatherDisplay:10.37,2013-01-26 08:12:00,
2013-01-26 00:17:00,60.7,57.7,29.94,NNE,20,0.0,0.0,90,0.00,CLR,,0.00,0.0,WeatherDisplay:10.37,2013-01-26 08:17:00,
2013-01-26 00:22:00,60.7,57.7,29.94,NNE,20,0.0,0.0,90,0.00,CLR,,0.00,0.0,WeatherDisplay:10.37,2013-01-26 08:22:00,
2013-01-26 00:27:00,60.6,57.7,29.94,NNE,20,0.0,0.0,90,0.00,CLR,,0.00,0.0,WeatherDisplay:10.37,2013-01-26 08:27:00,
2013-01-26 00:32:00,60.7,57.7,29.94,NNE,20,1.1,0.0,90,0.00,CLR,,0.00,0.0,WeatherDisplay:10.37,2013-01-26 08:32:00,
2013-01-26 00:37:00,60.6,57.7,29.94,NNE,20,0.0,0.0,90,0.00,CLR,,0.00,0.0,WeatherDisplay:10.37,2013-01-26 08:37:00,
2013-01-26 00:42:00,60.6,57.7,29.94,NNE,20,0.0,0.0,90,0.00,CLR,,0.00,0.0,WeatherDisplay:10.37,2013-01-26 08:42:00,
2013-01-26 00:47:00,60.5,57.6,29.94,NNE,20,1.1,1.1,90,0.00,CLR,,0.00,0.0,WeatherDisplay:10.37,2013-01-26 08:47:00,
2013-01-26 00:52:00,60.6,57.7,29.94,NNE,20,0.0,0.0,90,0.00,CLR,,0.00,0.0,WeatherDisplay:10.37,2013-01-26 08:52:00,
2013-01-26 00:57:00,60.6,57.7,29.94,NNE,20,0.0,0.0,90,0.00,CLR,,0.00,0.0,WeatherDisplay:10.37,2013-01-26 08:57:00,
2013-01-26 01:02:00,60.6,57.7,29.94,NNE,20,0.0,0.0,90,0.00,CLR,,0.00,0.0,WeatherDisplay:10.37,2013-01-26 09:02:00,
2013-01-26 01:07:00,60.6,57.7,29.94,NNE,20,1.1,1.1,90,0.00,CLR,,0.00,0.0,WeatherDisplay:10.37,2013-01-26 09:07:00,
2013-01-26 01:12:00,60.6,57.7,29.94,NNE,20,1.1,0.0,90,0.00,CLR,,0.00,0.0,WeatherDisplay:10.37,2013-01-26 09:12:00,
2013-01-26 01:17:00,60.6,57.7,29.94,NNE,20,0.0,0.0,90,0.00,CLR,,0.00,0.0,WeatherDisplay:10.37,2013-01-26 09:17:00,
2013-01-26 01:22:00,60.6,57.7,29.94,NNE,20,0.0,0.0,90,0.00,CLR,,0.00,0.0,WeatherDisplay:10.37,2013-01-26 09:22:00,
2013-01-26 01:27:00,60.6,57.7,29.94,NNE,20,0.0,0.0,90,0.00,CLR,,0.00,0.0,WeatherDisplay:10.37,2013-01-26 09:27:00,
2013-01-26 01:32:00,60.6,57.7,29.94,NNE,20,0.0,0.0,90,0.00,CLR,,0.00,0.0,WeatherDisplay:10.37,2013-01-26 09:32:00,
2013-01-26 01:37:00,60.7,58.1,29.94,NNE,20,1.1,0.0,91,0.00,CLR,,0.00,0.0,WeatherDisplay:10.37,2013-01-26 09:37:00,
2013-01-26 01:42:00,60.6,58.0,29.93,NNE,20,1.1,1.1,91,0.00,CLR,,0.00,0.0,WeatherDisplay:10.37,2013-01-26 09:42:00,
2013-01-26 01:47:00,60.5,57.9,29.93,NNE,20,1.1,0.0,91,0.00,CLR,,0.00,0.0,WeatherDisplay:10.37,2013-01-26 09:47:00,
2013-01-26 01:52:00,60.5,57.9,29.93,NNE,20,0.0,0.0,91,0.00,CLR,,0.00,0.0,WeatherDisplay:10.37,2013-01-26 09:52:00,
2013-01-26 01:57:00,60.4,57.8,29.93,NNE,20,0.0,0.0,91,0.00,CLR,,0.00,0.0,WeatherDisplay:10.37,2013-01-26 09:57:00,
2013-01-26 02:02:00,60.4,57.8,29.93,NNE,20,0.0,0.0,91,0.00,CLR,,0.00,0.0,WeatherDisplay:10.37,2013-01-26 10:02:00,
2013-01-26 02:07:00,60.3,57.7,29.93,NNE,20,1.1,0.0,91,0.00,CLR,,0.00,0.0,WeatherDisplay:10.37,2013-01-26 10:07:00,
2013-01-26 02:12:00,60.3,57.7,29.93,NNE,20,0.0,0.0,91,0.00,CLR,,0.00,0.0,WeatherDisplay:10.37,2013-01-26 10:12:00,
2013-01-26 02:17:00,60.3,58.0,29.93,NNE,20,0.0,0.0,92,0.00,CLR,,0.00,0.0,WeatherDisplay:10.37,2013-01-26 10:17:00,
2013-01-26 02:22:00,60.2,57.9,29.93,NNE,20,0.0,0.0,92,0.00,CLR,,0.00,0.0,WeatherDisplay:10.37,2013-01-26 10:22:00,
2013-01-26 02:27:00,60.3,58.0,29.93,NNE,20,0.0,0.0,92,0.00,CLR,,0.00,0.0,WeatherDisplay:10.37,2013-01-26 10:27:00,
2013-01-26 02:32:00,60.2,57.9,29.93,NNE,20,0.0,0.0,92,0.00,CLR,,0.00,0.0,WeatherDisplay:10.37,2013-01-26 10:32:00,
2013-01-26 02:37:00,60.2,57.9,29.93,NNE,20,0.0,0.0,92,0.00,CLR,,0.00,0.0,WeatherDisplay:10.37,2013-01-26 10:37:00,
2013-01-26 02:42:00,60.2,57.9,29.93,NNE,20,0.0,0.0,92,0.00,CLR,,0.00,0.0,WeatherDisplay:10.37,2013-01-26 10:42:00,
2013-01-26 02:47:00,60.2,57.9,29.93,NNE,20,0.0,0.0,92,0.00,CLR,,0.00,0.0,WeatherDisplay:10.37,2013-01-26 10:47:00,
2013-01-26 02:52:00,60.2,57.9,29.92,NNE,20,0.0,0.0,92,0.00,CLR,,0.00,0.0,WeatherDisplay:10.37,2013-01-26 10:52:00,
2013-01-26 02:57:00,60.2,57.9,29.92,NNE,20,0.0,0.0,92,0.00,CLR,,0.00,0.0,WeatherDisplay:10.37,2013-01-26 10:57:00,
2013-01-26 03:02:00,60.2,57.9,29.92,NNE,20,0.0,0.0,92,0.00,CLR,,0.00,0.0,WeatherDisplay:10.37,2013-01-26 11:02:00,
2013-01-26 03:07:00,60.2,58.2,29.92,NNE,20,1.0,0.0,93,0.00,CLR,,0.00,0.0,WeatherDisplay:10.37,2013-01-26 11:07:00,
2013-01-26 03:12:00,60.2,58.2,29.91,NNE,20,1.1,1.1,93,0.00,CLR,,0.00,0.0,WeatherDisplay:10.37,2013-01-26 11:12:00,
2013-01-26 03:17:00,60.2,58.2,29.91,NNE,20,0.0,0.0,93,0.00,CLR,,0.00,0.0,WeatherDisplay:10.37,2013-01-26 11:17:00,
2013-01-26 03:22:00,60.2,58.2,29.91,NNE,20,0.0,0.0,93,0.00,CLR,,0.00,0.0,WeatherDisplay:10.37,2013-01-26 11:22:00,
2013-01-26 03:27:00,60.2,58.2,29.91,NNE,20,0.0,0.0,93,0.00,CLR,,0.00,0.0,WeatherDisplay:10.37,2013-01-26 11:27:00,
2013-01-26 03:32:00,60.2,58.2,29.91,NNE,20,0.0,0.0,93,0.00,CLR,,0.00,0.0,WeatherDisplay:10.37,2013-01-26 11:32:00,
2013-01-26 03:37:00,60.2,58.5,29.91,NNE,20,0.0,0.0,94,0.00,CLR,,0.00,0.0,WeatherDisplay:10.37,2013-01-26 11:37:00,
2013-01-26 03:42:00,60.2,58.5,29.90,NNE,20,0.0,0.0,94,0.01,RA,,0.01,0.0,WeatherDisplay:10.37,2013-01-26 11:42:00,
2013-01-26 03:47:00,60.1,58.4,29.90,NNE,20,0.0,0.0,94,0.01,RA,,0.01,0.0,WeatherDisplay:10.37,2013-01-26 11:47:00,
2013-01-26 03:52:00,60.1,58.4,29.90,NNE,20,0.0,0.0,94,0.01,RA,,0.01,0.0,WeatherDisplay:10.37,2013-01-26 11:52:00,
2013-01-26 03:57:00,60.1,58.4,29.90,NNE,20,0.0,0.0,94,0.01,CLR,,0.01,0.0,WeatherDisplay:10.37,2013-01-26 11:57:00,
2013-01-26 04:02:00,60.0,58.3,29.90,NNE,20,0.0,0.0,94,0.01,CLR,,0.01,0.0,WeatherDisplay:10.37,2013-01-26 12:02:00,
2013-01-26 04:07:00,60.0,58.3,29.90,NNE,20,0.0,0.0,94,0.01,CLR,,0.01,0.0,WeatherDisplay:10.37,2013-01-26 12:07:00,
2013-01-26 04:12:00,60.0,58.3,29.90,NNE,20,0.0,0.0,94,0.01,CLR,,0.01,0.0,WeatherDisplay:10.37,2013-01-26 12:12:00,
2013-01-26 04:17:00,60.0,58.3,29.90,NNE,20,0.0,0.0,94,0.02,RA,,0.02,0.0,WeatherDisplay:10.37,2013-01-26 12:17:00,
2013-01-26 04:22:00,60.0,58.3,29.90,NNE,20,0.0,0.0,94,0.03,RA,,0.03,0.0,WeatherDisplay:10.37,2013-01-26 12:22:00,
2013-01-26 04:27:00,60.0,58.3,29.90,NNE,20,0.0,0.0,94,0.03,RA,,0.03,0.0,WeatherDisplay:10.37,2013-01-26 12:27:00,
2013-01-26 04:32:00,60.0,58.3,29.90,NNE,20,0.0,0.0,94,0.04,RA,,0.04,0.0,WeatherDisplay:10.37,2013-01-26 12:32:00,
2013-01-26 04:37:00,60.0,58.3,29.90,NNE,20,0.0,0.0,94,0.04,RA,,0.04,0.0,WeatherDisplay:10.37,2013-01-26 12:37:00,
2013-01-26 04:42:00,60.0,58.3,29.90,NNE,20,0.0,0.0,94,0.03,RA,,0.04,0.0,WeatherDisplay:10.37,2013-01-26 12:42:00,
2013-01-26 04:47:00,60.0,58.3,29.90,NNE,20,0.0,0.0,94,0.03,CLR,,0.04,0.0,WeatherDisplay:10.37,2013-01-26 12:47:00,
2013-01-26 04:52:00,59.9,58.2,29.90,NNE,20,0.0,0.0,94,0.04,RA,,0.05,0.0,WeatherDisplay:10.37,2013-01-26 12:52:00,
2013-01-26 04:57:00,59.9,58.5,29.90,NNE,20,0.0,0.0,95,0.04,RA,,0.05,0.0,WeatherDisplay:10.37,2013-01-26 12:57:00,
2013-01-26 05:02:00,59.9,58.5,29.90,NNE,20,0.0,0.0,95,0.04,RA,,0.05,0.0,WeatherDisplay:10.37,2013-01-26 13:02:00,
2013-01-26 05:07:00,59.9,58.5,29.90,NNE,20,0.0,0.0,95,0.04,CLR,,0.05,0.0,WeatherDisplay:10.37,2013-01-26 13:07:00,
2013-01-26 05:12:00,59.9,58.5,29.90,NNE,20,0.0,0.0,95,0.04,CLR,,0.05,0.0,WeatherDisplay:10.37,2013-01-26 13:12:00,
2013-01-26 05:17:00,59.9,58.5,29.90,NNE,20,0.0,0.0,95,0.03,CLR,,0.05,0.0,WeatherDisplay:10.37,2013-01-26 13:17:00,
2013-01-26 05:22:00,59.9,58.5,29.90,NNE,20,0.0,0.0,95,0.02,CLR,,0.05,0.0,WeatherDisplay:10.37,2013-01-26 13:22:00,
2013-01-26 05:27:00,59.8,58.4,29.90,NNE,20,0.0,0.0,95,0.02,CLR,,0.05,0.0,WeatherDisplay:10.37,2013-01-26 13:27:00,
2013-01-26 05:32:00,59.8,58.4,29.90,NNE,20,0.0,0.0,95,0.01,CLR,,0.05,0.0,WeatherDisplay:10.37,2013-01-26 13:32:00,
2013-01-26 05:37:00,59.8,58.4,29.90,NNE,20,0.0,0.0,95,0.01,CLR,,0.05,0.0,WeatherDisplay:10.37,2013-01-26 13:37:00,
2013-01-26 05:42:00,59.8,58.4,29.90,NNE,20,0.0,0.0,95,0.01,CLR,,0.05,0.0,WeatherDisplay:10.37,2013-01-26 13:42:00,
2013-01-26 05:47:00,59.8,58.4,29.90,NNE,20,0.0,0.0,95,0.01,CLR,,0.05,0.0,WeatherDisplay:10.37,2013-01-26 13:47:00,
2013-01-26 05:52:00,59.8,58.4,29.90,NNE,20,0.0,0.0,95,0.00,CLR,,0.05,0.0,WeatherDisplay:10.37,2013-01-26 13:52:00,
2013-01-26 05:57:00,59.8,58.4,29.90,NNE,20,0.0,0.0,95,0.00,CLR,,0.05,0.0,WeatherDisplay:10.37,2013-01-26 13:57:00,
2013-01-26 06:02:00,59.8,58.4,29.90,NNE,20,0.0,0.0,95,0.00,CLR,,0.05,0.0,WeatherDisplay:10.37,2013-01-26 14:02:00,
2013-01-26 06:07:00,59.8,58.4,29.90,NNE,20,0.0,0.0,95,0.00,CLR,,0.05,0.0,WeatherDisplay:10.37,2013-01-26 14:07:00,
2013-01-26 06:12:00,59.8,58.7,29.90,NNE,20,0.0,0.0,96,0.00,CLR,,0.05,0.0,WeatherDisplay:10.37,2013-01-26 14:12:00,
2013-01-26 06:17:00,59.8,58.7,29.90,NNE,20,0.0,0.0,96,0.00,CLR,,0.05,0.0,WeatherDisplay:10.37,2013-01-26 14:17:00,
2013-01-26 06:23:00,59.8,58.7,29.90,NNE,20,0.0,0.0,96,0.00,CLR,,0.05,0.0,WeatherDisplay:10.37,2013-01-26 14:23:00,
2013-01-26 06:28:00,59.8,58.7,29.90,NNE,20,0.0,0.0,96,0.00,CLR,,0.05,0.0,WeatherDisplay:10.37,2013-01-26 14:28:00,
2013-01-26 06:33:00,59.8,58.7,29.90,NNE,20,0.0,0.0,96,0.00,CLR,,0.05,0.0,WeatherDisplay:10.37,2013-01-26 14:33:00,
2013-01-26 06:38:00,59.8,58.7,29.90,NNE,20,0.0,0.0,96,0.00,CLR,,0.05,0.0,WeatherDisplay:10.37,2013-01-26 14:38:00,
2013-01-26 06:43:00,59.8,58.7,29.90,NNE,20,0.0,0.0,96,0.00,CLR,,0.05,0.0,WeatherDisplay:10.37,2013-01-26 14:43:00,
2013-01-26 06:48:00,59.8,58.7,29.90,NNE,20,0.0,0.0,96,0.00,CLR,,0.05,0.0,WeatherDisplay:10.37,2013-01-26 14:48:00,
2013-01-26 06:53:00,59.8,58.7,29.90,NNE,20,0.0,0.0,96,0.00,CLR,,0.05,0.0,WeatherDisplay:10.37,2013-01-26 14:53:00,
2013-01-26 06:58:00,59.8,58.7,29.90,NNE,20,0.0,0.0,96,0.00,CLR,,0.05,0.0,WeatherDisplay:10.37,2013-01-26 14:58:00,
2013-01-26 07:03:00,59.8,58.7,29.90,NNE,20,0.0,0.0,96,0.00,BKN,,0.05,5.0,WeatherDisplay:10.37,2013-01-26 15:03:00,
2013-01-26 07:08:00,59.8,58.7,29.91,NNE,20,0.0,0.0,96,0.00,BKN,,0.05,11.0,WeatherDisplay:10.37,2013-01-26 15:08:00,
2013-01-26 07:13:00,59.8,58.7,29.91,NNE,20,0.0,0.0,96,0.00,BKN,,0.05,11.0,WeatherDisplay:10.37,2013-01-26 15:13:00,
2013-01-26 07:18:00,59.8,58.7,29.91,NNE,20,0.0,0.0,96,0.00,BKN,,0.05,12.0,WeatherDisplay:10.37,2013-01-26 15:18:00,
2013-01-26 07:23:00,59.8,58.7,29.91,NNE,20,0.0,0.0,96,0.00,BKN,,0.05,16.0,WeatherDisplay:10.37,2013-01-26 15:23:00,
2013-01-26 07:28:00,59.8,58.7,29.91,NNE,20,0.0,0.0,96,0.00,BKN,,0.05,16.0,WeatherDisplay:10.37,2013-01-26 15:28:00,
2013-01-26 07:33:00,59.9,58.8,29.91,NNE,20,0.0,0.0,96,0.00,BKN,,0.05,16.0,WeatherDisplay:10.37,2013-01-26 15:33:00,
2013-01-26 07:38:00,59.9,58.8,29.91,NNE,20,0.0,0.0,96,0.00,BKN,,0.05,14.0,WeatherDisplay:10.37,2013-01-26 15:38:00,
2013-01-26 07:43:00,59.9,58.8,29.91,NNE,20,0.0,0.0,96,0.00,BKN,,0.05,14.0,WeatherDisplay:10.37,2013-01-26 15:43:00,
2013-01-26 07:48:00,60.0,58.9,29.92,NNE,20,0.0,0.0,96,0.00,BKN,,0.05,16.0,WeatherDisplay:10.37,2013-01-26 15:48:00,
2013-01-26 07:53:00,60.0,58.9,29.92,NNE,20,0.0,0.0,96,0.00,BKN,,0.05,19.0,WeatherDisplay:10.37,2013-01-26 15:53:00,
2013-01-26 07:58:00,60.0,58.9,29.92,NNE,20,0.0,0.0,96,0.00,BKN,,0.05,21.0,WeatherDisplay:10.37,2013-01-26 15:58:00,
2013-01-26 08:03:00,60.0,58.9,29.92,NNE,20,0.0,0.0,96,0.00,BKN,,0.05,23.0,WeatherDisplay:10.37,2013-01-26 16:03:00,
2013-01-26 08:08:00,60.0,58.9,29.92,NNE,20,0.0,0.0,96,0.00,BKN,,0.05,23.0,WeatherDisplay:10.37,2013-01-26 16:08:00,
2013-01-26 08:13:00,60.0,58.9,29.92,NNE,20,0.0,0.0,96,0.00,BKN,,0.05,23.0,WeatherDisplay:10.37,2013-01-26 16:13:00,
2013-01-26 08:18:00,60.0,58.9,29.92,NNE,20,0.0,0.0,96,0.00,BKN,,0.05,21.0,WeatherDisplay:10.37,2013-01-26 16:18:00,
2013-01-26 08:23:00,60.0,58.9,29.92,NNE,20,0.0,0.0,96,0.00,BKN,,0.05,23.0,WeatherDisplay:10.37,2013-01-26 16:23:00,
2013-01-26 08:28:00,60.0,58.9,29.92,NNE,20,0.0,0.0,96,0.00,BKN,,0.05,26.0,WeatherDisplay:10.37,2013-01-26 16:28:00,
2013-01-26 08:33:00,60.0,58.9,29.92,NNE,20,0.0,0.0,96,0.00,BKN,,0.05,32.0,WeatherDisplay:10.37,2013-01-26 16:33:00,
2013-01-26 08:38:00,60.1,59.0,29.92,NNE,20,0.0,0.0,96,0.00,BKN,,0.05,33.0,WeatherDisplay:10.37,2013-01-26 16:38:00,
2013-01-26 08:43:00,60.1,59.0,29.93,NNE,20,0.0,0.0,96,0.00,BKN,,0.05,44.0,WeatherDisplay:10.37,2013-01-26 16:43:00,
2013-01-26 08:48:00,60.1,59.0,29.93,NNE,20,0.0,0.0,96,0.00,BKN,,0.06,56.0,WeatherDisplay:10.37,2013-01-26 16:48:00,
2013-01-26 08:53:00,60.2,59.1,29.93,NNE,20,0.0,0.0,96,0.01,RA,,0.06,65.0,WeatherDisplay:10.37,2013-01-26 16:53:00,
2013-01-26 08:58:00,60.3,59.2,29.93,NNE,20,0.0,0.0,96,0.02,RA,,0.07,83.0,WeatherDisplay:10.37,2013-01-26 16:58:00,
2013-01-26 09:03:00,60.5,59.4,29.93,NNE,20,0.0,0.0,96,0.02,RA,,0.07,102.0,WeatherDisplay:10.37,2013-01-26 17:03:00,
2013-01-26 09:08:00,60.5,59.4,29.93,NNE,20,0.0,0.0,96,0.02,RA,,0.07,102.0,WeatherDisplay:10.37,2013-01-26 17:08:00,
2013-01-26 09:13:00,60.6,59.5,29.94,NNE,20,1.0,0.0,96,0.02,BKN,,0.07,91.0,WeatherDisplay:10.37,2013-01-26 17:13:00,
2013-01-26 09:18:00,60.6,59.5,29.94,NNE,20,0.0,0.0,96,0.02,BKN,,0.07,100.0,WeatherDisplay:10.37,2013-01-26 17:18:00,
2013-01-26 09:23:00,60.6,59.5,29.94,NNE,20,1.1,0.0,96,0.02,BKN,,0.07,111.0,WeatherDisplay:10.37,2013-01-26 17:23:00,
2013-01-26 09:28:00,60.6,59.5,29.94,NNE,20,2.3,2.3,96,0.02,BKN,,0.07,65.0,WeatherDisplay:10.37,2013-01-26 17:28:00,
2013-01-26 09:33:00,60.3,59.2,29.94,NW,313,4.6,4.6,96,0.03,RA,,0.08,69.0,WeatherDisplay:10.37,2013-01-26 17:33:00,
2013-01-26 09:38:00,60.0,58.9,29.94,NW,307,3.5,3.5,96,0.03,RA,,0.08,86.0,WeatherDisplay:10.37,2013-01-26 17:38:00,
2013-01-26 09:43:00,60.1,59.0,29.94,NW,307,2.3,2.3,96,0.03,RA,,0.08,88.0,WeatherDisplay:10.37,2013-01-26 17:43:00,
2013-01-26 09:48:00,60.3,59.2,29.94,NW,307,2.3,2.3,96,0.03,RA,,0.09,100.0,WeatherDisplay:10.37,2013-01-26 17:48:00,
2013-01-26 09:53:00,60.4,59.3,29.95,NW,311,2.3,2.3,96,0.03,RA,,0.09,111.0,WeatherDisplay:10.37,2013-01-26 17:53:00,
2013-01-26 09:58:00,60.3,59.2,29.95,NW,311,2.3,2.3,96,0.02,RA,,0.09,148.0,WeatherDisplay:10.37,2013-01-26 17:58:00,
2013-01-26 10:03:00,60.4,59.3,29.95,NW,311,0.0,0.0,96,0.02,BKN,,0.09,155.0,WeatherDisplay:10.37,2013-01-26 18:03:00,
2013-01-26 10:08:00,60.6,59.5,29.94,NW,311,0.0,0.0,96,0.02,BKN,,0.09,186.0,WeatherDisplay:10.37,2013-01-26 18:08:00,
2013-01-26 10:13:00,60.8,59.7,29.94,NW,311,1.0,1.0,96,0.02,BKN,,0.09,214.0,WeatherDisplay:10.37,2013-01-26 18:13:00,
2013-01-26 10:18:00,60.7,59.6,29.94,NW,311,1.1,0.0,96,0.02,BKN,,0.09,213.0,WeatherDisplay:10.37,2013-01-26 18:18:00,
2013-01-26 10:23:00,60.9,59.8,29.94,NW,311,1.1,0.0,96,0.02,BKN,,0.09,209.0,WeatherDisplay:10.37,2013-01-26 18:23:00,
2013-01-26 10:28:00,61.1,60.0,29.94,NNE,22,2.3,2.3,96,0.02,BKN,,0.09,204.0,WeatherDisplay:10.37,2013-01-26 18:28:00,
2013-01-26 10:33:00,61.3,60.2,29.94,NNE,26,2.3,2.3,96,0.01,BKN,,0.09,204.0,WeatherDisplay:10.37,2013-01-26 18:33:00,
2013-01-26 10:38:00,61.4,60.2,29.94,SE,138,3.5,3.5,96,0.01,BKN,,0.09,200.0,WeatherDisplay:10.37,2013-01-26 18:38:00,
2013-01-26 10:43:00,61.4,60.2,29.94,SE,129,3.0,3.0,96,0.01,BKN,,0.09,200.0,WeatherDisplay:10.37,2013-01-26 18:43:00,
2013-01-26 10:48:00,61.4,60.2,29.94,ESE,119,3.5,3.5,96,0.00,BKN,,0.09,227.0,WeatherDisplay:10.37,2013-01-26 18:48:00,
2013-01-26 10:53:00,61.6,60.2,29.94,SSE,150,3.5,3.5,95,0.00,SCT,,0.09,239.0,WeatherDisplay:10.37,2013-01-26 18:53:00,
2013-01-26 10:58:00,62.1,60.9,29.93,ESE,121,3.5,3.5,96,0.00,CLR,,0.09,390.0,WeatherDisplay:10.37,2013-01-26 18:58:00,
2013-01-26 11:03:00,62.6,61.4,29.93,SE,146,7.0,7.0,96,0.00,CLR,,0.09,570.0,WeatherDisplay:10.37,2013-01-26 19:03:00,
2013-01-26 11:08:00,62.7,60.9,29.92,SSE,167,6.9,6.9,94,0.00,CLR,,0.09,568.0,WeatherDisplay:10.37,2013-01-26 19:08:00,
2013-01-26 11:13:00,63.3,61.5,29.92,ESE,107,4.6,4.6,94,0.00,CLR,,0.09,396.0,WeatherDisplay:10.37,2013-01-26 19:13:00,
2013-01-26 11:18:00,63.4,61.0,29.92,SE,131,6.9,6.9,92,0.00,BKN,,0.09,299.0,WeatherDisplay:10.37,2013-01-26 19:18:00,
2013-01-26 11:23:00,63.5,60.8,29.92,ENE,74,5.8,5.8,91,0.00,CLR,,0.09,756.0,WeatherDisplay:10.37,2013-01-26 19:23:00,
2013-01-26 11:28:00,64.1,61.4,29.91,ESE,119,6.0,6.0,91,0.00,CLR,,0.09,817.0,WeatherDisplay:10.37,2013-01-26 19:28:00,
2013-01-26 11:33:00,64.7,61.1,29.91,SE,140,10.4,10.4,88,0.00,CLR,,0.09,571.0,WeatherDisplay:10.37,2013-01-26 19:33:00,
2013-01-26 11:38:00,64.9,60.9,29.91,ESE,112,5.8,5.8,87,0.00,SCT,,0.09,327.0,WeatherDisplay:10.37,2013-01-26 19:38:00,
2013-01-26 11:43:00,64.9,60.6,29.91,ESE,109,2.3,2.3,86,0.00,BKN,,0.09,267.0,WeatherDisplay:10.37,2013-01-26 19:43:00,
2013-01-26 11:48:00,65.0,60.7,29.91,SE,128,3.0,3.0,86,0.00,BKN,,0.09,178.0,WeatherDisplay:10.37,2013-01-26 19:48:00,
2013-01-26 11:53:00,65.0,60.7,29.91,ESE,109,4.0,4.0,86,0.00,BKN,,0.09,185.0,WeatherDisplay:10.37,2013-01-26 19:53:00,
2013-01-26 11:58:00,64.9,60.3,29.91,SE,136,3.5,3.5,85,0.00,BKN,,0.09,130.0,WeatherDisplay:10.37,2013-01-26 19:58:00,
2013-01-26 12:03:00,64.8,60.2,29.91,SE,136,1.1,0.0,85,0.00,BKN,,0.09,97.0,WeatherDisplay:10.37,2013-01-26 20:03:00,
2013-01-26 12:08:00,64.8,60.5,29.91,SSE,148,3.0,3.0,86,0.00,BKN,,0.09,158.0,WeatherDisplay:10.37,2013-01-26 20:08:00,
2013-01-26 12:13:00,64.9,60.6,29.91,SE,129,0.0,0.0,86,0.00,BKN,,0.09,107.0,WeatherDisplay:10.37,2013-01-26 20:13:00,
2013-01-26 12:18:00,64.9,60.3,29.91,SE,140,1.1,1.1,85,0.00,BKN,,0.09,67.0,WeatherDisplay:10.37,2013-01-26 20:18:00,
2013-01-26 12:23:00,64.9,60.3,29.91,SE,140,2.3,2.3,85,0.00,BKN,,0.09,81.0,WeatherDisplay:10.37,2013-01-26 20:23:00,
2013-01-26 12:28:00,64.9,60.3,29.90,SSW,196,3.5,3.5,85,0.00,BKN,,0.09,121.0,WeatherDisplay:10.37,2013-01-26 20:28:00,
2013-01-26 12:33:00,64.9,60.3,29.90,South,177,3.5,3.5,85,0.00,BKN,,0.09,192.0,WeatherDisplay:10.37,2013-01-26 20:33:00,
2013-01-26 12:38:00,65.0,60.4,29.90,SSW,213,6.0,6.0,85,0.00,BKN,,0.09,262.0,WeatherDisplay:10.37,2013-01-26 20:38:00,
2013-01-26 12:43:00,65.2,59.9,29.90,SSW,204,8.0,8.0,83,0.00,BKN,,0.09,239.0,WeatherDisplay:10.37,2013-01-26 20:43:00,
2013-01-26 12:48:00,65.4,60.1,29.90,SSW,209,5.0,5.0,83,0.00,BKN,,0.09,225.0,WeatherDisplay:10.37,2013-01-26 20:48:00,
2013-01-26 12:53:00,65.2,59.9,29.90,SSW,211,8.1,8.1,83,0.00,BKN,,0.09,139.0,WeatherDisplay:10.37,2013-01-26 20:53:00,
2013-01-26 12:58:00,64.9,59.9,29.90,SSW,208,9.2,9.2,84,0.00,BKN,,0.09,183.0,WeatherDisplay:10.37,2013-01-26 20:58:00,
2013-01-26 13:03:00,64.5,59.2,29.90,SSW,200,9.2,9.2,83,0.00,BKN,,0.09,183.0,WeatherDisplay:10.37,2013-01-26 21:03:00,
2013-01-26 13:08:00,64.1,59.2,29.90,SSW,208,9.2,9.2,84,0.00,BKN,,0.09,156.0,WeatherDisplay:10.37,2013-01-26 21:08:00,
2013-01-26 13:13:00,64.1,59.5,29.90,SW,223,7.0,7.0,85,0.00,BKN,,0.09,84.0,WeatherDisplay:10.37,2013-01-26 21:13:00,
2013-01-26 13:18:00,64.0,59.4,29.90,SSW,200,10.4,10.4,85,0.00,BKN,,0.09,58.0,WeatherDisplay:10.37,2013-01-26 21:18:00,
2013-01-26 13:23:00,63.7,59.1,29.90,SW,232,8.1,8.1,85,0.00,BKN,,0.09,70.0,WeatherDisplay:10.37,2013-01-26 21:23:00,
2013-01-26 13:28:00,63.4,59.1,29.90,South,186,11.5,11.5,86,0.00,BKN,,0.09,62.0,WeatherDisplay:10.37,2013-01-26 21:28:00,
2013-01-26 13:33:00,63.1,59.2,29.90,SSW,202,8.1,8.1,87,0.00,BKN,,0.09,81.0,WeatherDisplay:10.37,2013-01-26 21:33:00,
2013-01-26 13:38:00,62.8,59.2,29.90,SW,225,10.4,10.4,88,0.00,BKN,,0.09,95.0,WeatherDisplay:10.37,2013-01-26 21:38:00,
2013-01-26 13:43:00,62.7,59.1,29.90,SSW,200,9.2,9.2,88,0.00,BKN,,0.09,162.0,WeatherDisplay:10.37,2013-01-26 21:43:00,
2013-01-26 13:48:00,62.6,59.0,29.90,SSW,207,8.1,8.1,88,0.00,FEW,,0.09,374.0,WeatherDisplay:10.37,2013-01-26 21:48:00,
2013-01-26 13:53:00,63.2,59.6,29.90,SSW,207,10.4,10.4,88,0.00,CLR,,0.09,503.0,WeatherDisplay:10.37,2013-01-26 21:53:00,
2013-01-26 13:58:00,63.5,59.2,29.90,SSW,208,8.1,8.1,86,0.00,CLR,,0.09,503.0,WeatherDisplay:10.37,2013-01-26 21:58:00,
2013-01-26 14:03:00,63.7,59.1,29.90,SW,217,9.2,9.2,85,0.00,CLR,,0.09,489.0,WeatherDisplay:10.37,2013-01-26 22:03:00,
2013-01-26 14:08:00,64.1,59.5,29.90,SSW,212,7.0,7.0,85,0.00,SCT,,0.09,281.0,WeatherDisplay:10.37,2013-01-26 22:08:00,
2013-01-26 14:13:00,64.3,59.4,29.90,SSW,207,6.9,6.9,84,0.00,SCT,,0.09,271.0,WeatherDisplay:10.37,2013-01-26 22:13:00,
2013-01-26 14:18:00,64.4,59.5,29.90,WSW,244,6.9,6.9,84,0.00,SCT,,0.09,271.0,WeatherDisplay:10.37,2013-01-26 22:18:00,
2013-01-26 14:23:00,64.4,59.5,29.90,SW,215,5.8,5.8,84,0.00,SCT,,0.09,220.0,WeatherDisplay:10.37,2013-01-26 22:23:00,
2013-01-26 14:28:00,64.4,59.1,29.90,SW,214,6.0,6.0,83,0.00,SCT,,0.09,265.0,WeatherDisplay:10.37,2013-01-26 22:28:00,
2013-01-26 14:33:00,64.7,59.1,29.90,West,264,6.0,6.0,82,0.00,CLR,,0.09,221.0,WeatherDisplay:10.37,2013-01-26 22:33:00,
2013-01-26 14:38:00,64.8,58.8,29.90,West,261,6.9,6.9,81,0.00,FEW,,0.09,417.0,WeatherDisplay:10.37,2013-01-26 22:38:00,
2013-01-26 14:43:00,65.0,58.7,29.90,SW,219,5.0,5.0,80,0.00,CLR,,0.09,446.0,WeatherDisplay:10.37,2013-01-26 22:43:00,
2013-01-26 14:48:00,65.5,58.5,29.90,SSW,207,6.0,6.0,78,0.00,CLR,,0.09,427.0,WeatherDisplay:10.37,2013-01-26 22:48:00,
2013-01-26 14:53:00,65.7,58.3,29.90,SSW,193,8.1,8.1,77,0.00,CLR,,0.09,385.0,WeatherDisplay:10.37,2013-01-26 22:53:00,
2013-01-26 14:58:00,65.7,58.3,29.90,South,185,5.8,5.8,77,0.00,CLR,,0.09,362.0,WeatherDisplay:10.37,2013-01-26 22:58:00,
2013-01-26 15:03:00,65.8,58.0,29.90,South,182,6.9,6.9,76,0.00,CLR,,0.09,343.0,WeatherDisplay:10.37,2013-01-26 23:03:00,
2013-01-26 15:08:00,65.9,57.7,29.90,SW,233,3.5,3.5,75,0.00,CLR,,0.09,336.0,WeatherDisplay:10.37,2013-01-26 23:08:00,
2013-01-26 15:13:00,66.1,57.6,29.90,SSW,203,6.9,6.9,74,0.00,CLR,,0.09,330.0,WeatherDisplay:10.37,2013-01-26 23:13:00,
2013-01-26 15:18:00,66.1,57.6,29.90,SSW,196,6.9,6.9,74,0.00,CLR,,0.09,332.0,WeatherDisplay:10.37,2013-01-26 23:18:00,
2013-01-26 15:23:00,66.1,57.6,29.90,South,172,10.4,10.4,74,0.00,CLR,,0.09,202.0,WeatherDisplay:10.37,2013-01-26 23:23:00,
2013-01-26 15:28:00,66.0,57.5,29.90,South,187,3.5,3.5,74,0.00,SCT,,0.09,135.0,WeatherDisplay:10.37,2013-01-26 23:28:00,
2013-01-26 15:33:00,66.3,57.8,29.90,WSW,248,5.0,5.0,74,0.00,FEW,,0.09,225.0,WeatherDisplay:10.37,2013-01-26 23:33:00,
2013-01-26 15:38:00,66.5,58.0,29.90,SSW,200,6.0,6.0,74,0.00,CLR,,0.09,246.0,WeatherDisplay:10.37,2013-01-26 23:38:00,
2013-01-26 15:43:00,66.3,57.4,29.90,South,180,3.5,3.5,73,0.00,BKN,,0.09,100.0,WeatherDisplay:10.37,2013-01-26 23:43:00,
2013-01-26 15:48:00,66.0,57.5,29.90,SSW,197,5.8,5.8,74,0.00,SCT,,0.09,229.0,WeatherDisplay:10.37,2013-01-26 23:48:00,
2013-01-26 15:54:00,66.1,57.2,29.90,SSW,209,4.6,4.6,73,0.00,CLR,,0.09,229.0,WeatherDisplay:10.37,2013-01-26 23:54:00,
2013-01-26 15:59:00,66.3,57.0,29.90,West,280,5.0,5.0,72,0.00,CLR,,0.09,206.0,WeatherDisplay:10.37,2013-01-26 23:59:00,
2013-01-26 16:04:00,66.4,56.7,29.90,SW,236,10.4,10.4,71,0.00,CLR,,0.09,190.0,WeatherDisplay:10.37,2013-01-27 00:04:00,
2013-01-26 16:09:00,66.2,56.1,29.90,West,266,8.1,8.1,70,0.00,CLR,,0.09,158.0,WeatherDisplay:10.37,2013-01-27 00:09:00,
2013-01-26 16:14:00,66.2,56.5,29.90,WSW,239,6.9,6.9,71,0.00,CLR,,0.09,139.0,WeatherDisplay:10.37,2013-01-27 00:14:00,
2013-01-26 16:19:00,66.3,56.6,29.90,SSW,201,6.0,6.0,71,0.00,CLR,,0.09,123.0,WeatherDisplay:10.37,2013-01-27 00:19:00,
2013-01-26 16:24:00,66.3,58.1,29.90,South,188,4.0,4.0,75,0.00,BKN,,0.09,53.0,WeatherDisplay:10.37,2013-01-27 00:24:00,
2013-01-26 16:29:00,65.9,58.1,29.91,SW,217,5.0,5.0,76,0.00,SCT,,0.09,65.0,WeatherDisplay:10.37,2013-01-27 00:29:00,
2013-01-26 16:34:00,65.3,57.9,29.91,SSW,205,5.8,5.8,77,0.00,CLR,,0.09,83.0,WeatherDisplay:10.37,2013-01-27 00:34:00,
2013-01-26 16:39:00,64.7,57.7,29.91,SSE,152,8.0,8.0,78,0.00,SCT,,0.09,40.0,WeatherDisplay:10.37,2013-01-27 00:39:00,
2013-01-26 16:44:00,64.0,57.7,29.91,SSE,153,5.0,5.0,80,0.00,SCT,,0.09,39.0,WeatherDisplay:10.37,2013-01-27 00:44:00,
2013-01-26 16:49:00,63.5,57.2,29.91,SSE,166,6.0,6.0,80,0.00,SCT,,0.09,32.0,WeatherDisplay:10.37,2013-01-27 00:49:00,
2013-01-26 16:54:00,63.1,57.2,29.91,SE,141,5.8,5.8,81,0.00,SCT,,0.09,30.0,WeatherDisplay:10.37,2013-01-27 00:54:00,
2013-01-26 16:59:00,62.8,56.9,29.91,SE,144,5.8,5.8,81,0.00,SCT,,0.09,21.0,WeatherDisplay:10.37,2013-01-27 00:59:00,
2013-01-26 17:04:00,62.4,56.8,29.91,South,173,4.6,4.6,82,0.00,CLR,,0.09,16.0,WeatherDisplay:10.37,2013-01-27 01:04:00,
2013-01-26 17:09:00,62.0,56.4,29.92,SSE,168,6.9,6.9,82,0.00,CLR,,0.09,12.0,WeatherDisplay:10.37,2013-01-27 01:09:00,
2013-01-26 17:14:00,61.6,56.0,29.92,SSE,165,5.8,5.8,82,0.00,CLR,,0.09,7.0,WeatherDisplay:10.37,2013-01-27 01:14:00,
2013-01-26 17:19:00,61.1,55.9,29.92,SSE,167,8.1,8.1,83,0.00,CLR,,0.09,5.0,WeatherDisplay:10.37,2013-01-27 01:19:00,
2013-01-26 17:24:00,60.5,55.6,29.92,South,171,6.9,6.9,84,0.00,CLR,,0.09,0.0,WeatherDisplay:10.37,2013-01-27 01:24:00,
2013-01-26 17:29:00,59.8,55.3,29.92,South,172,8.0,8.0,85,0.00,CLR,,0.09,0.0,WeatherDisplay:10.37,2013-01-27 01:29:00,
2013-01-26 17:34:00,59.1,55.2,29.92,SE,144,6.9,6.9,87,0.00,CLR,,0.09,0.0,WeatherDisplay:10.37,2013-01-27 01:34:00,
2013-01-26 17:39:00,58.3,54.8,29.92,SE,142,7.0,7.0,88,0.00,CLR,,0.09,0.0,WeatherDisplay:10.37,2013-01-27 01:39:00,
2013-01-26 17:44:00,57.3,54.1,29.93,SE,140,8.0,8.0,89,0.00,CLR,,0.09,0.0,WeatherDisplay:10.37,2013-01-27 01:44:00,
2013-01-26 17:49:00,56.8,53.9,29.93,SSE,148,9.2,9.2,90,0.00,CLR,,0.09,0.0,WeatherDisplay:10.37,2013-01-27 01:49:00,
2013-01-26 17:54:00,56.6,54.0,29.93,South,173,5.0,5.0,91,0.00,CLR,,0.09,0.0,WeatherDisplay:10.37,2013-01-27 01:54:00,
2013-01-26 17:59:00,56.5,54.2,29.93,South,190,5.8,5.8,92,0.00,CLR,,0.09,0.0,WeatherDisplay:10.37,2013-01-27 01:59:00,
2013-01-26 18:04:00,56.3,54.0,29.94,South,173,6.9,6.9,92,0.00,CLR,,0.09,0.0,WeatherDisplay:10.37,2013-01-27 02:04:00,
2013-01-26 18:09:00,56.3,54.0,29.94,SSE,167,6.0,6.0,92,0.00,CLR,,0.09,0.0,WeatherDisplay:10.37,2013-01-27 02:09:00,
2013-01-26 18:14:00,56.1,53.8,29.94,South,169,5.8,5.8,92,0.00,CLR,,0.09,0.0,WeatherDisplay:10.37,2013-01-27 02:14:00,
2013-01-26 18:19:00,55.8,53.8,29.94,SSE,157,5.8,5.8,93,0.00,CLR,,0.09,0.0,WeatherDisplay:10.37,2013-01-27 02:19:00,
2013-01-26 18:24:00,55.7,53.7,29.95,South,186,3.5,3.5,93,0.00,CLR,,0.09,0.0,WeatherDisplay:10.37,2013-01-27 02:24:00,
2013-01-26 18:29:00,55.8,54.1,29.95,South,186,3.0,3.0,94,0.00,CLR,,0.09,0.0,WeatherDisplay:10.37,2013-01-27 02:29:00,
2013-01-26 18:34:00,55.8,54.1,29.95,SSE,165,5.0,5.0,94,0.00,CLR,,0.09,0.0,WeatherDisplay:10.37,2013-01-27 02:34:00,
2013-01-26 18:39:00,55.9,54.2,29.95,South,171,4.6,4.6,94,0.00,CLR,,0.09,0.0,WeatherDisplay:10.37,2013-01-27 02:39:00,
2013-01-26 18:44:00,55.5,53.8,29.95,SSW,209,7.0,7.0,94,0.00,CLR,,0.09,0.0,WeatherDisplay:10.37,2013-01-27 02:44:00,
2013-01-26 18:49:00,55.3,53.6,29.96,SSW,205,5.8,5.8,94,0.00,CLR,,0.09,0.0,WeatherDisplay:10.37,2013-01-27 02:49:00,
2013-01-26 18:54:00,55.3,53.6,29.96,South,178,4.6,4.6,94,0.00,CLR,,0.09,0.0,WeatherDisplay:10.37,2013-01-27 02:54:00,
2013-01-26 18:59:00,55.4,53.7,29.96,SSW,205,4.6,4.6,94,0.00,CLR,,0.09,0.0,WeatherDisplay:10.37,2013-01-27 02:59:00,
2013-01-26 19:04:00,55.3,53.6,29.96,SSW,192,3.5,3.5,94,0.00,CLR,,0.09,0.0,WeatherDisplay:10.37,2013-01-27 03:04:00,
2013-01-26 19:09:00,55.3,53.9,29.96,SSW,203,5.8,5.8,95,0.00,CLR,,0.09,0.0,WeatherDisplay:10.37,2013-01-27 03:09:00,
2013-01-26 19:14:00,55.2,53.8,29.96,South,170,6.9,6.9,95,0.00,CLR,,0.09,0.0,WeatherDisplay:10.37,2013-01-27 03:14:00,
2013-01-26 19:19:00,55.1,53.7,29.96,SSW,205,5.0,5.0,95,0.00,CLR,,0.09,0.0,WeatherDisplay:10.37,2013-01-27 03:19:00,
2013-01-26 19:24:00,55.3,53.9,29.96,South,173,3.5,3.5,95,0.00,CLR,,0.09,0.0,WeatherDisplay:10.37,2013-01-27 03:24:00,
2013-01-26 19:29:00,55.2,53.8,29.96,SSW,200,4.6,4.6,95,0.00,CLR,,0.09,0.0,WeatherDisplay:10.37,2013-01-27 03:29:00,
2013-01-26 19:34:00,55.2,53.8,29.97,South,187,4.0,4.0,95,0.00,CLR,,0.09,0.0,WeatherDisplay:10.37,2013-01-27 03:34:00,
2013-01-26 19:39:00,55.2,53.8,29.97,SSW,196,5.0,5.0,95,0.00,CLR,,0.09,0.0,WeatherDisplay:10.37,2013-01-27 03:39:00,
2013-01-26 19:44:00,55.3,53.9,29.97,SSW,196,3.5,3.5,95,0.00,CLR,,0.09,0.0,WeatherDisplay:10.37,2013-01-27 03:44:00,
2013-01-26 19:49:00,55.3,53.9,29.97,South,187,4.6,4.6,95,0.00,CLR,,0.09,0.0,WeatherDisplay:10.37,2013-01-27 03:49:00,
2013-01-26 19:54:00,55.3,53.9,29.97,SSW,210,6.0,6.0,95,0.00,CLR,,0.09,0.0,WeatherDisplay:10.37,2013-01-27 03:54:00,
2013-01-26 19:59:00,55.4,54.0,29.98,SSW,203,4.6,4.6,95,0.00,CLR,,0.09,0.0,WeatherDisplay:10.37,2013-01-27 03:59:00,
2013-01-26 20:04:00,55.5,54.1,29.98,SSW,207,2.3,2.3,95,0.00,CLR,,0.09,0.0,WeatherDisplay:10.37,2013-01-27 04:04:00,
2013-01-26 20:09:00,55.6,54.2,29.98,South,184,3.5,3.5,95,0.00,CLR,,0.09,0.0,WeatherDisplay:10.37,2013-01-27 04:09:00,
2013-01-26 20:14:00,55.7,54.3,29.98,SSW,203,4.0,4.0,95,0.00,CLR,,0.09,0.0,WeatherDisplay:10.37,2013-01-27 04:14:00,
2013-01-26 20:19:00,55.8,54.4,29.98,SSW,203,2.3,2.3,95,0.00,CLR,,0.09,0.0,WeatherDisplay:10.37,2013-01-27 04:19:00,
2013-01-26 20:24:00,55.9,54.5,29.98,SSW,203,3.5,3.5,95,0.00,CLR,,0.09,0.0,WeatherDisplay:10.37,2013-01-27 04:24:00,
2013-01-26 20:29:00,55.9,54.2,29.98,SSW,203,1.1,1.1,94,0.00,CLR,,0.09,0.0,WeatherDisplay:10.37,2013-01-27 04:29:00,
2013-01-26 20:34:00,55.9,54.2,29.98,SSW,203,3.5,3.5,94,0.00,CLR,,0.09,0.0,WeatherDisplay:10.37,2013-01-27 04:34:00,
2013-01-26 20:39:00,56.0,54.3,29.98,SSW,203,1.1,1.1,94,0.00,CLR,,0.09,0.0,WeatherDisplay:10.37,2013-01-27 04:39:00,
2013-01-26 20:44:00,56.0,54.3,29.98,SSW,203,2.3,2.3,94,0.00,CLR,,0.09,0.0,WeatherDisplay:10.37,2013-01-27 04:44:00,
2013-01-26 20:49:00,56.0,54.3,29.98,SSW,203,0.0,0.0,94,0.00,CLR,,0.09,0.0,WeatherDisplay:10.37,2013-01-27 04:49:00,
2013-01-26 20:54:00,56.1,54.4,29.98,SSW,204,1.1,1.1,94,0.00,CLR,,0.09,0.0,WeatherDisplay:10.37,2013-01-27 04:54:00,
2013-01-26 20:59:00,56.2,54.5,29.98,SSW,203,2.3,0.0,94,0.00,CLR,,0.09,0.0,WeatherDisplay:10.37,2013-01-27 04:59:00,
2013-01-26 21:00:00,56.2,54.5,29.98,SSW,204,1.1,0.0,94,0.00,CLR,,0.09,0.0,WeatherDisplay:10.37,2013-01-27 05:00:00,
2013-01-26 21:02:00,56.3,54.6,29.98,SSW,203,0.0,0.0,94,0.00,CLR,,0.09,0.0,WeatherDisplay:10.37,2013-01-27 05:02:00,
2013-01-26 21:03:00,56.3,54.6,29.98,SSW,203,0.0,0.0,94,0.00,CLR,,0.09,0.0,WeatherDisplay:10.37,2013-01-27 05:03:00,
2013-01-26 21:08:00,56.4,54.7,29.98,SSW,204,2.3,2.3,94,0.00,CLR,,0.09,0.0,WeatherDisplay:10.37,2013-01-27 05:08:00,
2013-01-26 21:13:00,56.5,54.8,29.98,SSW,203,4.0,4.0,94,0.00,CLR,,0.09,0.0,WeatherDisplay:10.37,2013-01-27 05:13:00,
2013-01-26 21:18:00,56.6,54.9,29.98,SSW,204,1.1,0.0,94,0.00,CLR,,0.09,0.0,WeatherDisplay:10.37,2013-01-27 05:18:00,
2013-01-26 21:23:00,56.6,54.9,29.98,SSW,204,0.0,0.0,94,0.00,CLR,,0.09,0.0,WeatherDisplay:10.37,2013-01-27 05:23:00,
2013-01-26 21:28:00,56.7,55.0,29.99,SSW,205,3.5,3.5,94,0.00,CLR,,0.09,0.0,WeatherDisplay:10.37,2013-01-27 05:28:00,
2013-01-26 21:33:00,56.8,55.1,29.99,South,187,2.3,2.3,94,0.00,CLR,,0.09,0.0,WeatherDisplay:10.37,2013-01-27 05:33:00,
2013-01-26 21:38:00,56.8,55.1,29.99,SSW,195,2.3,2.3,94,0.00,CLR,,0.09,0.0,WeatherDisplay:10.37,2013-01-27 05:38:00,
2013-01-26 21:43:00,56.8,55.1,29.99,SSW,195,4.0,4.0,94,0.00,CLR,,0.09,0.0,WeatherDisplay:10.37,2013-01-27 05:43:00,
2013-01-26 21:48:00,56.9,55.2,29.99,SSW,195,3.5,3.5,94,0.00,CLR,,0.09,0.0,WeatherDisplay:10.37,2013-01-27 05:48:00,
2013-01-26 21:53:00,56.8,55.1,29.99,SSW,196,2.3,2.3,94,0.00,CLR,,0.09,0.0,WeatherDisplay:10.37,2013-01-27 05:53:00,
2013-01-26 21:58:00,56.8,55.1,29.99,SSW,196,3.5,3.5,94,0.00,CLR,,0.09,0.0,WeatherDisplay:10.37,2013-01-27 05:58:00,
2013-01-26 22:03:00,56.8,55.1,29.99,SSW,196,0.0,0.0,94,0.00,CLR,,0.09,0.0,WeatherDisplay:10.37,2013-01-27 06:03:00,
2013-01-26 22:08:00,56.8,55.1,29.99,SSW,196,1.1,0.0,94,0.00,CLR,,0.09,0.0,WeatherDisplay:10.37,2013-01-27 06:08:00,
2013-01-26 22:13:00,56.8,55.1,30.00,SSW,196,1.1,0.0,94,0.00,CLR,,0.09,0.0,WeatherDisplay:10.37,2013-01-27 06:13:00,
2013-01-26 22:18:00,56.8,55.1,29.99,SSW,196,0.0,0.0,94,0.00,CLR,,0.09,0.0,WeatherDisplay:10.37,2013-01-27 06:18:00,
2013-01-26 22:23:00,56.8,55.1,29.99,SSW,195,2.3,2.3,94,0.00,CLR,,0.09,0.0,WeatherDisplay:10.37,2013-01-27 06:23:00,
2013-01-26 22:29:00,56.8,55.1,30.00,South,189,3.5,3.5,94,0.00,CLR,,0.09,0.0,WeatherDisplay:10.37,2013-01-27 06:29:00,
2013-01-26 22:34:00,56.8,55.1,30.00,South,189,2.3,2.3,94,0.00,CLR,,0.09,0.0,WeatherDisplay:10.37,2013-01-27 06:34:00,
2013-01-26 22:39:00,56.8,55.1,30.00,SSE,165,3.5,3.5,94,0.00,CLR,,0.09,0.0,WeatherDisplay:10.37,2013-01-27 06:39:00,
2013-01-26 22:44:00,56.9,55.2,30.00,South,169,4.6,4.6,94,0.00,CLR,,0.09,0.0,WeatherDisplay:10.37,2013-01-27 06:44:00,
2013-01-26 22:49:00,56.9,55.2,30.00,South,188,3.5,3.5,94,0.00,CLR,,0.09,0.0,WeatherDisplay:10.37,2013-01-27 06:49:00,
2013-01-26 22:54:00,56.9,55.2,30.00,SSE,161,4.0,4.0,94,0.00,CLR,,0.09,0.0,WeatherDisplay:10.37,2013-01-27 06:54:00,
2013-01-26 22:59:00,56.8,55.4,30.00,SSE,161,3.5,3.5,95,0.00,CLR,,0.09,0.0,WeatherDisplay:10.37,2013-01-27 06:59:00,
2013-01-26 23:04:00,56.8,55.4,30.00,South,176,4.0,4.0,95,0.00,CLR,,0.09,0.0,WeatherDisplay:10.37,2013-01-27 07:04:00,
2013-01-26 23:09:00,56.8,55.4,30.00,South,180,3.5,3.5,95,0.00,CLR,,0.09,0.0,WeatherDisplay:10.37,2013-01-27 07:09:00,
2013-01-26 23:14:00,56.8,55.4,30.01,SSW,205,4.0,4.0,95,0.00,CLR,,0.09,0.0,WeatherDisplay:10.37,2013-01-27 07:14:00,
2013-01-26 23:19:00,56.8,55.4,30.01,South,186,4.0,4.0,95,0.00,CLR,,0.09,0.0,WeatherDisplay:10.37,2013-01-27 07:19:00,
2013-01-26 23:24:00,56.7,55.3,30.00,SSE,168,3.5,3.5,95,0.00,CLR,,0.09,0.0,WeatherDisplay:10.37,2013-01-27 07:24:00,
2013-01-26 23:29:00,56.6,55.2,30.00,SSW,205,4.0,4.0,95,0.00,CLR,,0.09,0.0,WeatherDisplay:10.37,2013-01-27 07:29:00,
2013-01-26 23:34:00,56.6,55.2,30.00,SSE,163,3.5,3.5,95,0.00,CLR,,0.09,0.0,WeatherDisplay:10.37,2013-01-27 07:34:00,
2013-01-26 23:39:00,56.6,55.5,30.00,SE,135,3.5,3.5,96,0.00,CLR,,0.09,0.0,WeatherDisplay:10.37,2013-01-27 07:39:00,
2013-01-26 23:44:00,56.6,55.5,30.00,SE,139,3.5,3.5,96,0.00,CLR,,0.09,0.0,WeatherDisplay:10.37,2013-01-27 07:44:00,
2013-01-26 23:49:00,56.6,55.5,30.00,SE,139,3.5,3.5,96,0.00,CLR,,0.09,0.0,WeatherDisplay:10.37,2013-01-27 07:49:00,
2013-01-26 23:54:00,56.6,55.5,30.00,SE,140,2.3,0.0,96,0.00,CLR,,0.09,0.0,WeatherDisplay:10.37,2013-01-27 07:54:00,
2013-01-26 23:59:00,56.6,55.5,30.00,SE,140,3.5,3.5,96,0.00,CLR,,0.09,0.0,WeatherDisplay:10.37,2013-01-27 07:59:00,